Wind_Speed
3 5 1 3 3 2 2 1 3 4 3 3 2 5 7 15 24 27 29 30 28 22 12 6 11 20 25 26 27 24 21 21 20 20 18 17 16 15 15 14 13 14 14 13
6 1 3 1 3 2 2 1 4 4 3 3 2 4 4 13 12 19 26 31 31 28 23 14 3 9 18 23 26 26 23 22 21 20 19 18 14 14 13 13 14 15 15 15
3 2 1 3 2 1 2 4 3 3 4 3 2 3 4 5 17 25 30 28 32 32 32 29 19 8 6 13 18 22 23 22 22 21 21 21 21 19 16 13 14 15 16 16
3 3 1 1 1 5 2 4 3 2 3 3 2 3 2 3 9 15 27 31 32 34 34 34 30 23 11 6 11 13 18 22 22 21 23 22 21 19 16 14 13 13 15 16
4 2 1 0 2 4 4 2 2 0 3 2 1 3 4 1 7 8 19 28 30 33 36 37 38 32 23 11 2 7 10 15 19 21 22 24 25 20 20 18 17 16 14 15
5 4 2 2 2 1 3 4 6 4 3 1 3 4 3 3 2 3 12 25 29 33 35 36 36 36 35 24 14 7 1 5 10 13 17 20 22 25 26 24 22 19 17 16
6 1 3 1 2 2 5 5 3 3 3 4 2 4 0 3 5 4 8 22 28 31 35 37 38 39 38 37 31 22 12 6 3 5 9 14 17 20 23 24 24 24 23 21
3 4 3 4 2 1 2 4 4 3 2 3 3 2 1 2 10 13 18 22 27 31 33 35 36 36 36 34 32 30 26 23 16 10 6 8 12 16 19 21 23 23 24 24
5 4 4 2 2 2 1 1 3 4 2 2 2 3 3 5 6 12 16 22 26 29 31 33 32 33 32 31 31 28 25 23 21 20 16 12 8 9 12 14 18 20 21 23
2 5 2 5 1 4 1 3 2 3 2 4 3 3 3 5 5 4 10 17 21 24 27 29 30 29 28 28 27 25 24 22 20 18 18 18 16 15 12 9 13 17 19 20
3 1 7 3 5 2 5 3 5 3 3 3 2 3 4 2 5 6 8 14 17 21 24 26 26 26 25 25 26 24 23 21 19 18 16 15 16 16 14 13 12 12 12 15
3 2 3 6 2 2 4 4 4 3 3 0 2 3 4 4 6 10 10 13 15 18 21 24 25 25 25 26 25 25 23 22 20 18 17 17 15 15 15 16 16 15 14 13
4 2 4 7 4 5 6 4 2 2 2 3 2 2 5 9 11 9 10 11 14 18 21 23 24 26 26 26 25 24 23 22 20 19 19 18 18 17 17 17 17 16 15 14
1 1 4 5 3 0 5 5 3 2 1 2 4 6 1 3 5 10 11 10 14 18 22 23 25 26 26 25 25 24 23 22 22 22 21 20 20 20 19 19 19 18 17 16
4 1 3 3 5 4 5 3 2 4 5 5 4 8 5 3 5 7 10 12 15 19 21 22 23 24 25 25 26 25 23 23 24 24 24 23 22 21 21 21 21 20 19 18
7 2 4 4 4 4 5 3 2 3 3 3 7 4 1 3 4 3 8 13 16 18 19 20 21 23 25 26 27 27 27 26 26 26 25 24 24 23 23 24 24 24 23 22
1 1 3 4 5 7 2 2 5 2 3 2 2 2 2 3 6 3 4 15 16 16 17 18 21 24 25 26 27 28 28 28 28 28 28 27 25 25 25 25 25 25 25 25
2 2 1 3 5 3 1 3 6 5 3 4 4 3 3 4 7 11 3 12 16 17 19 20 22 26 28 28 29 29 28 27 29 30 29 29 29 29 28 28 27 27 27 26
8 2 1 1 2 3 2 2 1 0 2 2 3 2 2 4 7 10 4 12 14 16 21 26 28 28 30 30 31 31 31 30 30 30 30 30 31 32 32 33 32 32 31 30
5 4 2 0 1 4 2 2 10 4 2 9 7 6 5 2 1 5 8 14 18 22 25 27 29 28 27 26 27 28 28 29 31 31 32 33 34 36 37 38 39 40 40 39
2 1 2 3 3 5 1 4 4 4 3 6 9 9 7 4 6 10 14 19 21 23 25 24 24 24 25 25 24 24 25 26 28 31 31 32 31 31 32 33 33 35 37 37
1 1 3 2 3 6 2 1 1 6 15 15 12 10 8 9 12 16 19 21 23 24 24 23 22 22 20 20 22 24 25 27 27 27 28 29 30 28 29 28 28 30 31 31
3 5 3 5 4 3 5 7 13 19 16 11 10 8 8 13 16 18 20 20 20 20 20 19 18 18 18 19 21 22 22 25 28 29 29 27 27 28 27 26 27 27 28 30
5 4 3 2 4 14 19 30 31 8 11 11 10 9 12 14 14 16 16 17 17 16 16 17 16 14 19 20 20 21 23 23 23 22 22 23 23 22 23 22 22 23 24 25
8 3 3 5 16 20 13 7 9 10 9 14 12 13 15 15 15 15 14 13 12 12 14 15 13 15 18 18 20 22 23 23 22 21 20 22 24 23 22 20 19 19 19 20
9 6 4 5 17 11 17 19 14 16 17 16 16 14 13 13 12 11 10 9 10 11 12 13 12 15 18 18 21 21 22 21 22 20 23 21 21 22 24 23 23 19 19 20
Wind_Direction
25 61 188 247 191 132 123 145 268 262 272 60 44 64 5 11 32 27 31 30 32 29 17 297 248 238 246 251 250 247 244 243 239 238 241 244 253 259 263 265 264 259 255 253
19 236 207 203 144 154 171 262 280 285 331 106 149 78 24 29 33 38 34 32 31 35 39 41 17 237 240 248 252 250 248 245 243 244 247 252 264 271 275 272 267 264 260 259
163 232 321 175 141 193 243 183 223 220 349 68 111 4 24 31 40 43 48 45 45 39 36 37 35 22 240 235 241 245 247 251 250 248 249 252 257 266 272 285 294 284 272 267
233 290 342 120 250 136 278 195 170 157 77 212 55 264 29 31 24 27 32 44 43 43 44 42 39 34 20 288 240 232 238 247 254 256 254 257 262 271 290 298 307 299 282 272
263 338 2 4 229 173 218 59 8 331 118 73 301 95 262 301 26 357 17 42 48 50 48 46 47 45 40 36 7 225 232 248 258 260 261 261 262 273 282 287 290 295 297 288
247 298 260 250 55 32 112 76 40 46 84 22 256 134 324 1 119 9 29 48 49 52 53 53 52 52 52 53 55 56 342 257 260 264 264 265 266 268 274 278 281 288 296 301
332 319 322 10 49 37 72 54 342 353 4 235 300 69 7 23 63 74 51 56 58 57 56 53 51 51 53 54 56 58 58 49 347 287 275 274 272 274 276 280 284 287 288 287
28 344 23 343 87 178 47 136 152 276 243 268 347 125 100 81 89 86 79 71 67 62 59 55 54 53 54 55 58 61 64 67 62 47 356 299 284 279 277 278 280 282 283 286
10 283 322 49 9 93 137 116 175 102 11 35 156 88 88 106 64 75 73 69 64 62 58 54 52 51 52 53 54 56 60 62 60 56 50 35 2 316 295 284 279 276 277 280
343 314 327 294 77 34 96 160 40 17 243 265 301 217 197 160 122 83 64 67 65 60 55 50 46 46 46 47 48 50 50 50 49 45 41 36 32 25 11 331 296 288 284 280
357 102 294 344 33 35 356 14 45 124 143 204 179 243 4 250 137 112 79 75 66 57 48 42 40 39 39 37 36 36 38 38 38 34 30 26 26 25 18 6 358 346 317 292
1 125 285 250 343 326 55 65 60 96 289 173 179 250 10 54 102 105 84 75 63 50 40 35 31 29 27 24 23 23 22 23 24 22 17 15 9 7 10 12 8 358 346 338
327 355 348 348 6 18 46 35 82 192 81 231 168 218 43 69 82 77 80 74 53 37 27 22 19 16 13 11 13 12 11 9 7 5 3 0 358 357 357 357 356 354 350 347
193 121 189 212 259 230 307 328 28 149 188 267 236 163 129 49 72 65 63 54 35 24 16 9 5 2 2 2 1 1 0 359 355 354 352 351 349 348 346 344 344 342 341 338
61 293 332 292 280 256 252 306 314 229 243 207 195 155 180 160 130 83 66 48 28 12 7 4 359 355 353 351 350 351 351 349 346 345 344 345 341 337 335 335 335 336 336 333
0 306 352 280 318 327 276 344 121 19 343 50 89 78 42 62 86 106 59 28 18 8 1 356 351 346 345 344 340 336 335 335 335 334 336 334 331 328 331 333 333 331 329 328
344 60 28 271 334 312 282 40 86 71 17 71 87 64 13 42 36 20 16 8 2 357 353 346 340 336 335 333 331 326 326 325 325 326 326 327 328 325 327 329 329 330 329 327
198 151 154 282 339 234 124 92 130 112 38 50 65 59 49 14 9 351 300 351 345 342 339 335 330 324 319 318 317 315 314 314 315 315 316 317 319 320 321 321 321 322 323 323
193 136 297 321 278 300 258 179 60 309 200 54 133 160 273 274 276 288 320 323 330 328 322 318 315 315 312 312 310 310 311 311 308 306 306 307 309 312 312 313 314 314 315 315
91 79 104 39 275 265 173 318 329 183 222 327 292 238 259 273 227 261 296 312 311 312 317 316 314 313 314 316 316 316 314 310 311 314 313 308 304 304 303 303 304 305 305 305
1 37 184 260 268 285 228 321 13 185 170 297 220 246 263 235 253 290 299 304 311 317 317 319 320 322 323 324 326 325 324 322 317 314 313 312 312 312 310 310 309 308 308 308
265 332 229 192 233 265 186 65 2 284 308 296 259 250 246 271 289 300 307 314 318 320 324 328 331 334 337 334 329 328 328 325 323 323 323 322 319 319 320 321 320 319 318 317
276 204 212 182 238 243 281 245 293 299 275 271 249 239 271 287 296 301 309 317 322 328 332 338 340 341 351 348 343 335 328 320 318 314 314 315 315 315 316 315 316 321 322 325
266 205 216 1 275 267 290 294 302 276 279 270 247 262 284 291 301 308 316 321 325 332 341 342 341 346 337 341 348 350 345 343 343 345 349 347 351 345 342 338 335 331 328 323
240 203 217 254 274 282 292 311 316 287 272 260 258 283 294 303 308 312 318 323 332 344 344 348 355 344 351 353 356 358 359 360 359 358 358 357 352 344 344 345 348 344 340 336
203 204 179 230 269 261 282 300 291 289 281 262 264 278 293 299 305 311 316 327 340 344 350 352 353 349 352 354 355 1 6 9 14 18 14 3 357 8 3 1 1 8 2 2
Height
1519 1525 1528 1522 1523 1523 1525 1528 1530 1526 1521 1522 1525 1526 1525 1522 1517 1513 1510 1506 1502 1498 1496 1494 1495 1498 1501 1504 1508 1512 1516 1519 1523 1525 1528 1530 1531 1534 1536 1538 1540 1541 1542 1543
1524 1526 1519 1519 1521 1523 1525 1528 1531 1525 1522 1523 1526 1528 1527 1525 1524 1522 1517 1511 1507 1501 1497 1494 1493 1494 1496 1499 1503 1507 1512 1515 1519 1523 1525 1528 1530 1532 1534 1535 1536 1538 1539 1540
1526 1519 1517 1517 1519 1522 1524 1528 1527 1526 1524 1524 1526 1532 1532 1529 1527 1524 1521 1518 1513 1508 1503 1498 1495 1493 1493 1494 1498 1503 1508 1513 1516 1520 1523 1525 1527 1529 1530 1531 1532 1534 1536 1537
1524 1518 1517 1518 1520 1522 1525 1521 1521 1522 1530 1539 1530 1548 1533 1535 1533 1529 1526 1522 1518 1513 1508 1503 1497 1494 1492 1493 1495 1499 1505 1510 1514 1517 1520 1522 1524 1526 1527 1529 1531 1533 1533 1534
1523 1519 1519 1520 1518 1518 1524 1520 1523 1523 1532 1533 1534 1542 1537 1533 1539 1538 1533 1529 1525 1520 1515 1508 1503 1498 1495 1494 1495 1498 1502 1507 1511 1514 1517 1520 1522 1524 1525 1527 1529 1530 1530 1530
1522 1518 1519 1518 1518 1518 1520 1524 1530 1536 1540 1547 1534 1538 1544 1543 1540 1542 1539 1533 1529 1524 1520 1516 1512 1507 1501 1498 1497 1499 1502 1505 1508 1511 1514 1516 1519 1521 1523 1524 1525 1526 1527 1527
1526 1519 1518 1518 1520 1520 1523 1533 1545 1540 1545 1543 1534 1540 1547 1545 1543 1543 1541 1538 1534 1530 1525 1521 1517 1512 1509 1505 1504 1503 1504 1506 1507 1509 1512 1514 1515 1517 1518 1520 1521 1522 1522 1523
1540 1532 1520 1518 1521 1524 1526 1530 1544 1535 1543 1542 1534 1542 1549 1547 1545 1544 1542 1540 1537 1533 1530 1527 1524 1521 1518 1515 1513 1511 1510 1509 1510 1510 1510 1511 1511 1512 1513 1514 1514 1515 1516 1517
1546 1532 1521 1519 1520 1522 1528 1533 1531 1543 1548 1549 1546 1546 1546 1547 1547 1546 1545 1542 1539 1537 1534 1532 1530 1527 1524 1522 1520 1518 1517 1515 1514 1513 1512 1511 1510 1509 1509 1509 1508 1508 1509 1510
1545 1546 1525 1522 1520 1523 1523 1527 1536 1545 1540 1541 1548 1544 1547 1547 1549 1548 1547 1545 1544 1541 1538 1535 1534 1532 1530 1527 1526 1523 1521 1519 1518 1516 1514 1512 1511 1509 1507 1505 1504 1504 1504 1503
1547 1547 1535 1525 1530 1531 1533 1534 1538 1541 1547 1542 1547 1547 1547 1546 1548 1550 1549 1547 1545 1544 1542 1539 1537 1535 1533 1531 1528 1526 1524 1522 1520 1518 1516 1515 1512 1510 1508 1505 1503 1501 1499 1498
1549 1552 1551 1535 1530 1532 1533 1539 1545 1550 1542 1551 1549 1550 1550 1548 1548 1548 1549 1549 1547 1546 1544 1541 1539 1536 1534 1532 1530 1528 1526 1524 1522 1520 1517 1515 1513 1510 1508 1505 1502 1500 1497 1495
1551 1554 1555 1540 1537 1535 1543 1544 1544 1546 1552 1548 1549 1551 1552 1550 1548 1549 1548 1548 1548 1546 1543 1541 1539 1537 1535 1533 1531 1529 1527 1524 1522 1519 1517 1514 1511 1509 1506 1504 1502 1499 1496 1494
1551 1555 1553 1554 1550 1553 1550 1546 1547 1545 1551 1545 1545 1554 1553 1552 1551 1550 1548 1548 1546 1545 1543 1541 1539 1537 1535 1533 1531 1529 1526 1524 1521 1518 1515 1512 1509 1507 1504 1502 1500 1498 1495 1492
1557 1559 1558 1553 1553 1552 1549 1547 1550 1547 1542 1545 1539 1547 1551 1551 1551 1550 1549 1549 1547 1545 1543 1542 1540 1538 1535 1532 1530 1527 1525 1522 1519 1516 1513 1510 1508 1505 1502 1499 1497 1494 1492 1490
1561 1562 1564 1559 1551 1553 1552 1551 1548 1550 1549 1547 1549 1553 1552 1552 1552 1551 1550 1549 1547 1546 1544 1542 1541 1538 1535 1533 1529 1526 1522 1519 1516 1513 1510 1507 1504 1501 1499 1496 1493 1490 1488 1485
1565 1566 1567 1563 1558 1555 1551 1554 1554 1554 1552 1549 1552 1553 1551 1552 1551 1550 1550 1548 1547 1546 1544 1542 1540 1537 1534 1531 1528 1524 1520 1516 1513 1509 1506 1503 1500 1497 1494 1491 1489 1486 1483 1480
1565 1566 1566 1567 1562 1554 1556 1551 1551 1553 1553 1552 1552 1552 1551 1551 1550 1550 1549 1548 1546 1544 1542 1540 1538 1535 1531 1528 1524 1520 1517 1514 1510 1506 1502 1499 1495 1492 1489 1486 1484 1481 1478 1475
1562 1564 1567 1570 1569 1559 1554 1551 1552 1552 1554 1552 1553 1552 1552 1551 1550 1549 1548 1547 1545 1543 1541 1538 1534 1530 1526 1522 1518 1513 1510 1507 1504 1500 1497 1493 1490 1486 1483 1480 1477 1475 1472 1469
1564 1566 1569 1572 1568 1555 1554 1551 1550 1551 1556 1552 1551 1551 1550 1550 1553 1549 1547 1545 1543 1540 1537 1532 1528 1524 1520 1516 1512 1508 1504 1500 1496 1493 1489 1486 1483 1480 1476 1474 1470 1467 1464 1461
1569 1568 1574 1572 1567 1558 1551 1551 1549 1554 1559 1550 1549 1549 1548 1549 1548 1546 1544 1542 1539 1535 1531 1527 1523 1519 1515 1511 1507 1503 1499 1495 1491 1487 1483 1480 1477 1473 1470 1466 1463 1459 1455 1452
1570 1574 1570 1567 1564 1560 1550 1552 1556 1553 1549 1548 1546 1545 1545 1545 1544 1542 1539 1536 1532 1528 1525 1522 1517 1514 1511 1507 1502 1498 1494 1490 1486 1482 1477 1473 1469 1466 1463 1460 1457 1453 1450 1446
1574 1568 1573 1568 1558 1551 1550 1549 1549 1547 1544 1542 1542 1542 1542 1541 1540 1538 1535 1532 1528 1524 1521 1518 1514 1511 1507 1504 1500 1495 1491 1486 1481 1477 1473 1470 1466 1462 1458 1454 1451 1448 1446 1442
1563 1560 1563 1560 1552 1547 1545 1544 1542 1542 1541 1540 1540 1539 1538 1537 1535 1533 1531 1528 1525 1522 1519 1515 1512 1509 1505 1501 1497 1493 1487 1481 1476 1472 1468 1464 1461 1457 1454 1451 1449 1445 1442 1438
1560 1558 1556 1555 1546 1543 1541 1540 1540 1539 1538 1537 1536 1535 1534 1532 1530 1529 1527 1524 1522 1519 1516 1513 1510 1506 1502 1498 1494 1490 1485 1479 1474 1470 1466 1462 1458 1454 1451 1448 1446 1444 1442 1439
1551 1550 1553 1550 1540 1540 1538 1538 1537 1535 1534 1534 1533 1531 1530 1528 1527 1525 1523 1521 1519 1516 1514 1510 1507 1504 1500 1497 1493 1488 1483 1479 1474 1470 1466 1462 1458 1453 1449 1445 1442 1440 1437 1434